Meath Environmental Platform

Observations for Trim Patrick St

Time AQI Temp °C Hum % Pres Pa CO μg/m³ H₂S μg/m³ NO μg/m³ NO₂ μg/m³ O₃ μg/m³ SO₂ μg/m³ PM1 μg/m³ PM2.5 μg/m³ PM10 μg/m³
Tuesday 4 August 2026
00:01 2 17 85 38,460 0.16 2.2 0.97 26.92 11.64 0 13.14 18 19.79
Monday 3 August 2026
23:59 2 17 85 38,460 0.16 2.09 1.03 25.6 15.17 0 13.14 16.62 18.28
23:58 2 17 85 38,460 0.16 2.02 0.89 27.45 11.18 0 10.57 16.62 18.28
23:57 2 17 85 38,460 0.17 2.93 0.91 27.19 14.04 0 10.57 13.86 15.24
23:55 2 17 85 38,460 0.16 2.51 0.7 26.93 18.64 0 11.43 13.17 14.49
23:54 2 16.9 85 38,460 0.16 2.43 0.9 28.05 11.3 0 9.71 14.55 16
23:53 2 16.9 85 38,460 0.17 2.46 0.81 27.81 15.45 0 9.71 13.17 14.49
23:49 2 16.9 85 38,460 0.16 5.88 0.57 37.79 16.96 0 10.57 15.25 16.77
23:48 2 16.9 85 38,460 0.16 2.96 0.57 26.58 20.27 0 10.57 15.94 17.53
23:47 3 16.9 85 38,460 0.17 2.8 0.57 24.47 18.34 0 10.57 15.25 16.77
23:46 3 16.9 85 38,460 0.16 2.72 0.54 28.26 12.48 0 11.43 15.94 17.53
23:45 3 16.9 85 38,460 0.17 2.59 0.71 27.06 15.95 0 10.57 14.56 16.01
23:44 2 16.9 85 38,460 0.17 2.07 0.7 26.82 13.87 0 8.86 13.18 14.5
23:43 3 16.9 85 38,460 0.16 2.17 0.73 25.52 14.17 0 11.43 16.63 18.29
23:42 3 16.9 85 38,460 0.17 2.91 0.78 27.3 13.56 0 10.57 15.94 17.53
23:41 2 16.9 85 38,460 0.16 3.38 0.83 27.06 20.86 0 12.29 18.7 20.57
23:40 2 16.9 85 38,460 0.18 3.17 0.87 28.04 14.14 0 11.43 16.62 18.28
23:39 3 16.9 85 38,460 0.16 3.74 1.2 25.53 19.2 0 13.14 18 19.79
23:38 3 16.9 85 38,460 0.16 3.45 1.14 34.92 10.48 0 10.57 13.86 15.24
23:37 3 16.9 85 38,460 0.17 2.51 1.18 26.86 15.55 0 11.43 16.62 18.28